Year,Month,Day,Hour,Minute,Value (Times are PST for temperature in C)
2016,08,12,00,00,16.40
2016,08,12,00,01,16.30
2016,08,12,00,02,16.30
2016,08,12,00,03,16.30
2016,08,12,00,04,16.30
2016,08,12,00,05,16.30
2016,08,12,00,06,16.30
2016,08,12,00,07,16.30
2016,08,12,00,08,16.30
2016,08,12,00,09,16.20
2016,08,12,00,10,16.20
2016,08,12,00,11,16.20
2016,08,12,00,12,16.20
2016,08,12,00,13,16.20
2016,08,12,00,14,16.20
2016,08,12,00,15,16.20
2016,08,12,00,16,16.20
2016,08,12,00,17,16.20
2016,08,12,00,18,16.20
2016,08,12,00,19,16.20
2016,08,12,00,20,16.20
2016,08,12,00,21,16.20
2016,08,12,00,22,16.20
2016,08,12,00,23,16.20
2016,08,12,00,24,16.10
2016,08,12,00,25,16.20
2016,08,12,00,26,16.10
2016,08,12,00,27,16.10
2016,08,12,00,28,16.20
2016,08,12,00,29,16.20
2016,08,12,00,30,16.20
2016,08,12,00,31,16.20
2016,08,12,00,32,16.10
2016,08,12,00,33,16.10
2016,08,12,00,34,16.10
2016,08,12,00,35,16.10
2016,08,12,00,36,16.10
2016,08,12,00,37,16.10
2016,08,12,00,38,16.10
2016,08,12,00,39,16.10
2016,08,12,00,40,16.10
2016,08,12,00,41,16.10
2016,08,12,00,42,16.10
2016,08,12,00,43,16.10
2016,08,12,00,44,16.10
2016,08,12,00,45,16.10
2016,08,12,00,46,16.10
2016,08,12,00,47,16.00
2016,08,12,00,48,16.00
2016,08,12,00,49,16.00
2016,08,12,00,50,15.90
2016,08,12,00,51,15.90
2016,08,12,00,52,15.90
2016,08,12,00,53,15.90
2016,08,12,00,54,15.90
2016,08,12,00,55,15.80
2016,08,12,00,56,15.80
2016,08,12,00,57,15.80
2016,08,12,00,58,15.80
2016,08,12,00,59,15.80
2016,08,12,01,00,15.80
2016,08,12,01,01,15.80
2016,08,12,01,02,15.70
2016,08,12,01,03,15.70
2016,08,12,01,04,15.70
2016,08,12,01,05,15.70
2016,08,12,01,06,15.70
2016,08,12,01,07,15.70
2016,08,12,01,08,15.70
2016,08,12,01,09,15.70
2016,08,12,01,10,15.70
2016,08,12,01,11,15.70
2016,08,12,01,12,15.70
2016,08,12,01,13,15.70
2016,08,12,01,14,15.70
2016,08,12,01,15,15.70
2016,08,12,01,16,15.70
2016,08,12,01,17,15.70
2016,08,12,01,18,15.70
2016,08,12,01,19,15.70
2016,08,12,01,20,15.80
2016,08,12,01,21,15.80
2016,08,12,01,22,15.80
2016,08,12,01,23,15.80
2016,08,12,01,24,15.80
2016,08,12,01,25,15.80
2016,08,12,01,26,15.80
2016,08,12,01,27,15.80
2016,08,12,01,28,15.80
2016,08,12,01,29,15.80
2016,08,12,01,30,15.90
2016,08,12,01,31,15.90
2016,08,12,01,32,15.90
2016,08,12,01,33,15.90
2016,08,12,01,34,15.90
2016,08,12,01,35,16.00
2016,08,12,01,36,16.00
2016,08,12,01,37,16.00
2016,08,12,01,38,16.10
2016,08,12,01,39,16.10
2016,08,12,01,40,16.10
2016,08,12,01,41,16.10
2016,08,12,01,42,16.10
2016,08,12,01,43,16.20
2016,08,12,01,44,16.20
2016,08,12,01,45,16.20
2016,08,12,01,46,16.20
2016,08,12,01,47,16.20
2016,08,12,01,48,16.20
2016,08,12,01,49,16.30
2016,08,12,01,50,16.30
2016,08,12,01,51,16.30
2016,08,12,01,52,16.30
2016,08,12,01,53,16.30
2016,08,12,01,54,16.30
2016,08,12,01,55,16.30
2016,08,12,01,56,16.40
2016,08,12,01,57,16.40
2016,08,12,01,58,16.40
2016,08,12,01,59,16.40
2016,08,12,02,00,16.40
2016,08,12,02,01,16.40
2016,08,12,02,02,16.40
2016,08,12,02,03,16.40
2016,08,12,02,04,16.40
2016,08,12,02,05,16.40
2016,08,12,02,06,16.50
2016,08,12,02,07,16.50
2016,08,12,02,08,16.50
2016,08,12,02,09,16.50
2016,08,12,02,10,16.40
2016,08,12,02,11,16.40
2016,08,12,02,12,16.40
2016,08,12,02,13,16.40
2016,08,12,02,14,16.40
2016,08,12,02,15,16.40
2016,08,12,02,16,16.40
2016,08,12,02,17,16.40
2016,08,12,02,18,16.40
2016,08,12,02,19,16.40
2016,08,12,02,20,16.40
2016,08,12,02,21,16.40
2016,08,12,02,22,16.40
2016,08,12,02,23,16.40
2016,08,12,02,24,16.50
2016,08,12,02,25,16.50
2016,08,12,02,26,16.50
2016,08,12,02,27,16.60
2016,08,12,02,28,16.60
2016,08,12,02,29,16.60
2016,08,12,02,30,16.60
2016,08,12,02,31,16.70
2016,08,12,02,32,16.70
2016,08,12,02,33,16.80
2016,08,12,02,34,16.80
2016,08,12,02,35,16.90
2016,08,12,02,36,17.00
2016,08,12,02,37,17.10
2016,08,12,02,38,17.20
2016,08,12,02,39,17.30
2016,08,12,02,40,17.40
2016,08,12,02,41,17.50
2016,08,12,02,42,17.50
2016,08,12,02,43,17.60
2016,08,12,02,44,17.70
2016,08,12,02,45,17.70
2016,08,12,02,46,17.70
2016,08,12,02,47,17.70
2016,08,12,02,48,17.70
2016,08,12,02,49,17.70
2016,08,12,02,50,17.70
2016,08,12,02,51,17.70
2016,08,12,02,52,17.70
2016,08,12,02,53,17.70
2016,08,12,02,54,17.70
2016,08,12,02,55,17.60
2016,08,12,02,56,17.60
2016,08,12,02,57,17.60
2016,08,12,02,58,17.60
2016,08,12,02,59,17.60
2016,08,12,03,00,17.60
2016,08,12,03,01,17.60
2016,08,12,03,02,17.60
2016,08,12,03,06,17.60
2016,08,12,03,07,17.60
2016,08,12,03,08,17.60
2016,08,12,03,09,17.50
2016,08,12,03,10,17.50
2016,08,12,03,11,17.50
2016,08,12,03,12,17.50
2016,08,12,03,13,17.50
2016,08,12,03,14,17.50
2016,08,12,03,15,17.50
2016,08,12,03,16,17.40
2016,08,12,03,17,17.40
2016,08,12,03,18,17.40
2016,08,12,03,19,17.40
2016,08,12,03,20,17.40
2016,08,12,03,21,17.30
2016,08,12,03,22,17.30
2016,08,12,03,23,17.30
2016,08,12,03,24,17.30
2016,08,12,03,25,17.30
2016,08,12,03,26,17.30
2016,08,12,03,27,17.30
2016,08,12,03,28,17.30
2016,08,12,03,29,17.30
2016,08,12,03,30,17.30
2016,08,12,03,31,17.30
2016,08,12,03,32,17.40
2016,08,12,03,33,17.40
2016,08,12,03,34,17.40
2016,08,12,03,35,17.50
2016,08,12,03,36,17.60
2016,08,12,03,37,17.60
2016,08,12,03,38,17.70
2016,08,12,03,39,17.70
2016,08,12,03,40,17.70
2016,08,12,03,41,17.80
2016,08,12,03,42,17.80
2016,08,12,03,43,17.80
2016,08,12,03,44,17.80
2016,08,12,03,45,17.80
2016,08,12,03,46,17.70
2016,08,12,03,47,17.70
2016,08,12,03,48,17.70
2016,08,12,03,49,17.60
2016,08,12,03,50,17.60
2016,08,12,03,51,17.50
2016,08,12,03,52,17.50
2016,08,12,03,53,17.40
2016,08,12,03,54,17.40
2016,08,12,03,55,17.30
2016,08,12,03,56,17.20
2016,08,12,03,57,17.20
2016,08,12,03,58,17.10
2016,08,12,03,59,17.00
2016,08,12,04,00,17.00
2016,08,12,04,01,16.90
2016,08,12,04,02,16.90
2016,08,12,04,03,16.80
2016,08,12,04,04,16.80
2016,08,12,04,05,16.70
2016,08,12,04,06,16.70
2016,08,12,04,07,16.70
2016,08,12,04,08,16.60
2016,08,12,04,09,16.60
2016,08,12,04,10,16.60
2016,08,12,04,11,16.50
2016,08,12,04,12,16.50
2016,08,12,04,13,16.40
2016,08,12,04,14,16.40
2016,08,12,04,15,16.30
2016,08,12,04,16,16.30
2016,08,12,04,17,16.30
2016,08,12,04,18,16.30
2016,08,12,04,19,16.20
2016,08,12,04,20,16.20
2016,08,12,04,21,16.20
2016,08,12,04,22,16.20
2016,08,12,04,23,16.10
2016,08,12,04,24,16.10
2016,08,12,04,25,16.10
2016,08,12,04,26,16.10
2016,08,12,04,27,16.10
2016,08,12,04,28,16.10
2016,08,12,04,29,16.10
2016,08,12,04,30,16.10
2016,08,12,04,31,16.00
2016,08,12,04,32,16.00
2016,08,12,04,33,16.00
2016,08,12,04,34,16.00
2016,08,12,04,35,16.00
2016,08,12,04,36,16.00
2016,08,12,04,37,16.00
2016,08,12,04,38,16.00
2016,08,12,04,39,16.00
2016,08,12,04,40,16.00
2016,08,12,04,41,16.00
2016,08,12,04,42,16.00
2016,08,12,04,43,16.00
2016,08,12,04,44,16.00
2016,08,12,04,45,16.00
2016,08,12,04,46,15.90
2016,08,12,04,47,16.00
2016,08,12,04,48,15.90
2016,08,12,04,49,15.90
2016,08,12,04,50,15.90
2016,08,12,04,51,15.90
2016,08,12,04,52,15.90
2016,08,12,04,53,15.90
2016,08,12,04,54,16.00
2016,08,12,04,55,16.00
2016,08,12,04,56,16.00
2016,08,12,04,57,16.10
2016,08,12,04,58,16.10
2016,08,12,04,59,16.10
2016,08,12,05,00,16.20
2016,08,12,05,01,16.20
2016,08,12,05,02,16.30
2016,08,12,05,03,16.30
2016,08,12,05,04,16.30
2016,08,12,05,05,16.40
2016,08,12,05,06,16.40
2016,08,12,05,07,16.40
2016,08,12,05,08,16.40
2016,08,12,05,09,16.50
2016,08,12,05,10,16.50
2016,08,12,05,11,16.60
2016,08,12,05,12,16.60
2016,08,12,05,13,16.60
2016,08,12,05,14,16.60
2016,08,12,05,15,16.70
2016,08,12,05,16,16.70
2016,08,12,05,17,16.80
2016,08,12,05,18,16.80
2016,08,12,05,19,16.80
2016,08,12,05,20,16.90
2016,08,12,05,21,16.90
2016,08,12,05,22,16.90
2016,08,12,05,23,16.90
2016,08,12,05,24,16.90
2016,08,12,05,25,16.90
2016,08,12,05,26,16.90
2016,08,12,05,27,17.00
2016,08,12,05,28,17.00
2016,08,12,05,29,17.10
2016,08,12,05,30,17.10
2016,08,12,05,31,17.20
2016,08,12,05,32,17.20
2016,08,12,05,33,17.20
2016,08,12,05,34,17.30
2016,08,12,05,35,17.30
2016,08,12,05,36,17.30
2016,08,12,05,37,17.30
2016,08,12,05,38,17.30
2016,08,12,05,39,17.30
2016,08,12,05,40,17.30
2016,08,12,05,41,17.30
2016,08,12,05,42,17.30
2016,08,12,05,43,17.40
2016,08,12,05,44,17.40
2016,08,12,05,45,17.40
2016,08,12,05,46,17.40
2016,08,12,05,47,17.50
2016,08,12,05,48,17.40
2016,08,12,05,49,17.50
2016,08,12,05,50,17.50
2016,08,12,05,51,17.50
2016,08,12,05,52,17.50
2016,08,12,05,53,17.50
2016,08,12,05,54,17.50
2016,08,12,05,55,17.50
2016,08,12,05,56,17.50
2016,08,12,05,57,17.50
2016,08,12,05,58,17.40
2016,08,12,05,59,17.50
2016,08,12,06,00,17.60
2016,08,12,06,01,17.70
2016,08,12,06,02,17.90
2016,08,12,06,03,18.00
2016,08,12,06,04,18.10
2016,08,12,06,05,18.20
2016,08,12,06,06,18.30
2016,08,12,06,07,18.40
2016,08,12,06,08,18.40
2016,08,12,06,09,18.50
2016,08,12,06,10,18.50
2016,08,12,06,11,18.50
2016,08,12,06,12,18.60
2016,08,12,06,13,18.60
2016,08,12,06,14,18.60
2016,08,12,06,15,18.60
2016,08,12,06,16,18.60
2016,08,12,06,17,18.60
2016,08,12,06,18,18.60
2016,08,12,06,19,18.60
2016,08,12,06,20,18.60
2016,08,12,06,21,18.60
2016,08,12,06,22,18.70
2016,08,12,06,23,18.70
2016,08,12,06,24,18.80
2016,08,12,06,25,18.90
2016,08,12,06,26,18.90
2016,08,12,06,27,19.00
2016,08,12,06,28,19.10
2016,08,12,06,29,19.10
2016,08,12,06,30,19.10
2016,08,12,06,31,19.10
2016,08,12,06,32,19.20
2016,08,12,06,33,19.20
2016,08,12,06,34,19.20
2016,08,12,06,35,19.20
2016,08,12,06,36,19.20
2016,08,12,06,37,19.20
2016,08,12,06,38,19.20
2016,08,12,06,39,19.20
2016,08,12,06,40,19.20
2016,08,12,06,41,19.20
2016,08,12,06,42,19.20
2016,08,12,06,43,19.20
2016,08,12,06,44,19.20
2016,08,12,06,45,19.20
2016,08,12,06,46,19.20
2016,08,12,06,47,19.20
2016,08,12,06,48,19.20
2016,08,12,06,49,19.10
2016,08,12,06,50,19.10
2016,08,12,06,51,19.10
2016,08,12,06,52,19.10
2016,08,12,06,53,19.10
2016,08,12,06,54,19.10
2016,08,12,06,55,19.10
2016,08,12,06,56,19.20
2016,08,12,06,57,19.20
2016,08,12,06,58,19.20
2016,08,12,06,59,19.20
2016,08,12,07,00,19.30
2016,08,12,07,01,19.30
2016,08,12,07,02,19.40
2016,08,12,07,03,19.40
2016,08,12,07,04,19.40
2016,08,12,07,05,19.50
2016,08,12,07,06,19.60
2016,08,12,07,07,19.60
2016,08,12,07,08,19.60
2016,08,12,07,09,19.70
2016,08,12,07,10,19.70
2016,08,12,07,11,19.70
2016,08,12,07,12,19.70
2016,08,12,07,13,19.80
2016,08,12,07,14,19.80
2016,08,12,07,15,19.80
2016,08,12,07,16,19.90
2016,08,12,07,17,19.90
2016,08,12,07,18,19.90
2016,08,12,07,19,19.90
2016,08,12,07,20,19.90
2016,08,12,07,21,19.90
2016,08,12,07,22,20.00
2016,08,12,07,23,20.00
2016,08,12,07,24,20.00
2016,08,12,07,25,20.10
2016,08,12,07,26,20.10
2016,08,12,07,27,20.10
2016,08,12,07,28,20.20
2016,08,12,07,29,20.20
2016,08,12,07,30,20.20
2016,08,12,07,31,20.30
2016,08,12,07,32,20.30
2016,08,12,07,33,20.30
2016,08,12,07,34,20.30
2016,08,12,07,35,20.40
2016,08,12,07,36,20.40
2016,08,12,07,37,20.40
2016,08,12,07,38,20.40
2016,08,12,07,39,20.40
2016,08,12,07,40,20.40
2016,08,12,07,41,20.40
2016,08,12,07,42,20.40
2016,08,12,07,43,20.50
2016,08,12,07,44,20.50
2016,08,12,07,45,20.60
2016,08,12,07,46,20.60
2016,08,12,07,47,20.60
2016,08,12,07,48,20.70
2016,08,12,07,49,20.70
2016,08,12,07,50,20.70
2016,08,12,07,51,20.70
2016,08,12,07,52,20.80
2016,08,12,07,53,20.80
2016,08,12,07,54,20.80
2016,08,12,07,55,20.80
2016,08,12,07,56,20.90
2016,08,12,07,57,20.90
2016,08,12,07,58,20.90
2016,08,12,07,59,20.90
2016,08,12,08,00,21.00
2016,08,12,08,01,21.00
2016,08,12,08,02,21.10
2016,08,12,08,03,21.10
2016,08,12,08,04,21.20
2016,08,12,08,05,21.20
2016,08,12,08,06,21.30
2016,08,12,08,07,21.30
2016,08,12,08,08,21.30
2016,08,12,08,09,21.20
2016,08,12,08,10,21.20
2016,08,12,08,11,21.20
2016,08,12,08,12,21.20
2016,08,12,08,13,21.30
2016,08,12,08,14,21.30
2016,08,12,08,15,21.30
2016,08,12,08,16,21.30
2016,08,12,08,17,21.40
2016,08,12,08,18,21.50
2016,08,12,08,19,21.50
2016,08,12,08,20,21.60
2016,08,12,08,21,21.60
2016,08,12,08,22,21.60
2016,08,12,08,23,21.60
2016,08,12,08,24,21.60
2016,08,12,08,25,21.60
2016,08,12,08,26,21.60
2016,08,12,08,27,21.60
2016,08,12,08,28,21.70
2016,08,12,08,29,21.70
2016,08,12,08,30,21.80
2016,08,12,08,31,21.80
2016,08,12,08,32,21.80
2016,08,12,08,33,21.80
2016,08,12,08,34,21.90
2016,08,12,08,35,21.90
2016,08,12,08,36,22.00
2016,08,12,08,37,22.00
2016,08,12,08,38,22.10
2016,08,12,08,39,22.10
2016,08,12,08,40,22.20
2016,08,12,08,41,22.20
2016,08,12,08,42,22.30
2016,08,12,08,43,22.30
2016,08,12,08,44,22.30
2016,08,12,08,45,22.30
2016,08,12,08,46,22.30
2016,08,12,08,47,22.40
2016,08,12,08,48,22.40
2016,08,12,08,49,22.40
2016,08,12,08,50,22.50
2016,08,12,08,51,22.50
2016,08,12,08,52,22.60
2016,08,12,08,53,22.60
2016,08,12,08,54,22.60
2016,08,12,08,55,22.60
2016,08,12,08,56,22.60
2016,08,12,08,57,22.70
2016,08,12,08,58,22.80
2016,08,12,08,59,22.80
2016,08,12,09,00,22.90
2016,08,12,09,01,22.90
2016,08,12,09,02,22.90
2016,08,12,09,03,23.00
2016,08,12,09,04,23.10
2016,08,12,09,05,23.10
2016,08,12,09,06,23.10
2016,08,12,09,07,23.10
2016,08,12,09,08,23.10
2016,08,12,09,09,23.10
2016,08,12,09,10,23.00
2016,08,12,09,11,23.10
2016,08,12,09,12,23.10
2016,08,12,09,13,23.10
2016,08,12,09,14,23.10
2016,08,12,09,15,23.10
2016,08,12,09,16,23.30
2016,08,12,09,17,23.40
2016,08,12,09,18,23.40
2016,08,12,09,19,23.50
2016,08,12,09,20,23.50
2016,08,12,09,21,23.60
2016,08,12,09,22,23.70
2016,08,12,09,23,23.80
2016,08,12,09,24,24.00
2016,08,12,09,25,24.00
2016,08,12,09,26,24.00
2016,08,12,09,27,24.00
2016,08,12,09,28,24.10
2016,08,12,09,29,24.10
2016,08,12,09,30,24.10
2016,08,12,09,31,24.10
2016,08,12,09,32,24.10
2016,08,12,09,33,24.20
2016,08,12,09,34,24.20
2016,08,12,09,35,24.30
2016,08,12,09,36,24.40
2016,08,12,09,37,24.50
2016,08,12,09,38,24.60
2016,08,12,09,39,24.70
2016,08,12,09,40,24.80
2016,08,12,09,41,25.00
2016,08,12,09,42,25.00
2016,08,12,09,43,25.10
2016,08,12,09,44,25.20
2016,08,12,09,45,25.20
2016,08,12,09,46,25.20
2016,08,12,09,47,25.10
2016,08,12,09,48,25.00
2016,08,12,09,49,25.00
2016,08,12,09,50,25.00
2016,08,12,09,51,24.90
2016,08,12,09,52,25.00
2016,08,12,09,53,25.10
2016,08,12,09,54,25.10
2016,08,12,09,55,25.30
2016,08,12,09,56,25.40
2016,08,12,09,57,25.40
2016,08,12,09,58,25.40
2016,08,12,09,59,25.50
2016,08,12,10,00,25.50
2016,08,12,10,01,25.60
2016,08,12,10,02,25.50
2016,08,12,10,03,25.50
2016,08,12,10,04,25.40
2016,08,12,10,05,25.30
2016,08,12,10,06,25.30
2016,08,12,10,07,25.30
2016,08,12,10,08,25.30
2016,08,12,10,09,25.40
2016,08,12,10,10,25.50
2016,08,12,10,11,25.50
2016,08,12,10,12,25.60
2016,08,12,10,13,25.70
2016,08,12,10,14,25.70
2016,08,12,10,15,25.70
2016,08,12,10,16,25.70
2016,08,12,10,17,25.80
2016,08,12,10,18,25.90
2016,08,12,10,19,25.90
2016,08,12,10,20,26.00
2016,08,12,10,21,26.00
2016,08,12,10,22,26.00
2016,08,12,10,23,26.00
2016,08,12,10,24,25.90
2016,08,12,10,25,25.90
2016,08,12,10,26,25.90
2016,08,12,10,27,26.00
2016,08,12,10,28,26.00
2016,08,12,10,29,26.10
2016,08,12,10,30,26.00
2016,08,12,10,31,26.00
2016,08,12,10,32,25.90
2016,08,12,10,33,26.00
2016,08,12,10,34,26.00
2016,08,12,10,35,26.00
2016,08,12,10,36,26.10
2016,08,12,10,37,26.10
2016,08,12,10,38,26.20
2016,08,12,10,39,26.30
2016,08,12,10,40,26.30
2016,08,12,10,41,26.30
2016,08,12,10,42,26.30
2016,08,12,10,43,26.30
2016,08,12,10,44,26.40
2016,08,12,10,45,26.40
2016,08,12,10,46,26.50
2016,08,12,10,47,26.40
2016,08,12,10,48,26.40
2016,08,12,10,49,26.40
2016,08,12,10,50,26.50
2016,08,12,10,51,26.50
2016,08,12,10,52,26.50
2016,08,12,10,53,26.40
2016,08,12,10,54,26.40
2016,08,12,10,55,26.30
2016,08,12,10,56,26.20
2016,08,12,10,57,26.20
2016,08,12,10,58,26.10
2016,08,12,10,59,26.10
2016,08,12,11,00,26.00
2016,08,12,11,01,26.00
2016,08,12,11,02,25.90
2016,08,12,11,03,25.80
2016,08,12,11,04,25.80
2016,08,12,11,05,25.70
2016,08,12,11,06,25.70
2016,08,12,11,07,25.70
2016,08,12,11,08,25.80
2016,08,12,11,09,25.70
2016,08,12,11,10,25.70
2016,08,12,11,11,25.70
2016,08,12,11,12,25.70
2016,08,12,11,13,25.70
2016,08,12,11,14,25.70
2016,08,12,11,15,25.70
2016,08,12,11,16,25.70
2016,08,12,11,17,25.90
2016,08,12,11,18,26.00
2016,08,12,11,19,26.10
2016,08,12,11,20,26.10
2016,08,12,11,21,26.20
2016,08,12,11,22,26.30
2016,08,12,11,23,26.30
2016,08,12,11,24,26.40
2016,08,12,11,25,26.40
2016,08,12,11,26,26.40
2016,08,12,11,27,26.40
2016,08,12,11,28,26.40
2016,08,12,11,29,26.40
2016,08,12,11,30,26.40
2016,08,12,11,31,26.40
2016,08,12,11,32,26.40
2016,08,12,11,33,26.40
2016,08,12,11,34,26.40
2016,08,12,11,35,26.60
2016,08,12,11,36,26.70
2016,08,12,11,37,26.80
2016,08,12,11,38,26.90
2016,08,12,11,39,27.00
2016,08,12,11,40,27.10
2016,08,12,11,41,27.10
2016,08,12,11,42,27.10
2016,08,12,11,43,27.20
2016,08,12,11,44,27.20
2016,08,12,11,45,27.20
2016,08,12,11,46,27.30
2016,08,12,11,47,27.30
2016,08,12,11,48,27.30
2016,08,12,11,49,27.30
2016,08,12,11,50,27.30
2016,08,12,11,51,27.20
2016,08,12,11,52,27.20
2016,08,12,11,53,27.20
2016,08,12,11,54,27.30
2016,08,12,11,55,27.30
2016,08,12,11,56,27.30
2016,08,12,11,57,27.30
2016,08,12,11,58,27.40
2016,08,12,11,59,27.50
2016,08,12,12,00,27.60
2016,08,12,12,01,27.60
2016,08,12,12,02,27.50
2016,08,12,12,03,27.50
2016,08,12,12,04,27.40
2016,08,12,12,05,27.40
2016,08,12,12,06,27.40
2016,08,12,12,07,27.50
2016,08,12,12,08,27.40
2016,08,12,12,09,27.40
2016,08,12,12,10,27.30
2016,08,12,12,11,27.00
2016,08,12,12,12,26.80
2016,08,12,12,13,26.50
2016,08,12,12,14,26.30
2016,08,12,12,15,26.30
2016,08,12,12,16,26.20
2016,08,12,12,17,26.10
2016,08,12,12,18,25.90
2016,08,12,12,19,25.90
2016,08,12,12,20,25.90
2016,08,12,12,21,25.70
2016,08,12,12,22,25.50
2016,08,12,12,23,25.40
2016,08,12,12,24,25.40
2016,08,12,12,25,25.50
2016,08,12,12,26,25.60
2016,08,12,12,27,25.60
2016,08,12,12,28,25.70
2016,08,12,12,29,25.80
2016,08,12,12,30,25.90
2016,08,12,12,31,25.90
2016,08,12,12,32,25.90
2016,08,12,12,33,25.90
2016,08,12,12,34,25.90
2016,08,12,12,35,25.80
2016,08,12,12,36,25.80
2016,08,12,12,37,25.80
2016,08,12,12,38,25.90
2016,08,12,12,39,25.90
2016,08,12,12,40,25.90
2016,08,12,12,41,25.90
2016,08,12,12,42,26.00
2016,08,12,12,43,26.00
2016,08,12,12,44,26.00
2016,08,12,12,45,26.20
2016,08,12,12,46,26.30
2016,08,12,12,47,26.30
2016,08,12,12,48,26.40
2016,08,12,12,49,26.50
2016,08,12,12,50,26.60
2016,08,12,12,51,26.70
2016,08,12,12,52,26.70
2016,08,12,12,53,26.70
2016,08,12,12,54,26.70
2016,08,12,12,55,26.50
2016,08,12,12,56,26.30
2016,08,12,12,57,26.10
2016,08,12,12,58,25.90
2016,08,12,12,59,25.80
2016,08,12,13,00,25.70
2016,08,12,13,01,25.70
2016,08,12,13,02,25.80
2016,08,12,13,03,25.90
2016,08,12,13,04,25.90
2016,08,12,13,05,25.90
2016,08,12,13,06,25.90
2016,08,12,13,07,25.90
2016,08,12,13,08,25.90
2016,08,12,13,09,26.00
2016,08,12,13,10,26.10
2016,08,12,13,11,26.10
2016,08,12,13,12,26.20
2016,08,12,13,13,26.10
2016,08,12,13,14,25.90
2016,08,12,13,15,25.80
2016,08,12,13,16,25.80
2016,08,12,13,17,25.90
2016,08,12,13,18,25.90
2016,08,12,13,19,25.90
2016,08,12,13,20,25.90
2016,08,12,13,21,26.00
2016,08,12,13,22,26.00
2016,08,12,13,23,26.00
2016,08,12,13,24,25.90
2016,08,12,13,25,25.90
2016,08,12,13,26,25.90
2016,08,12,13,27,26.00
2016,08,12,13,28,26.10
2016,08,12,13,29,26.10
2016,08,12,13,30,26.10
2016,08,12,13,31,26.00
2016,08,12,13,32,26.00
2016,08,12,13,33,26.00
2016,08,12,13,34,26.10
2016,08,12,13,35,26.10
2016,08,12,13,36,26.20
2016,08,12,13,37,26.20
2016,08,12,13,38,26.30
2016,08,12,13,39,26.20
2016,08,12,13,40,26.30
2016,08,12,13,41,26.30
2016,08,12,13,42,26.30
2016,08,12,13,43,26.40
2016,08,12,13,44,26.40
2016,08,12,13,45,26.50
2016,08,12,13,46,26.60
2016,08,12,13,47,26.70
2016,08,12,13,48,26.80
2016,08,12,13,49,26.90
2016,08,12,13,50,26.90
2016,08,12,13,51,26.80
2016,08,12,13,52,26.80
2016,08,12,13,53,26.80
2016,08,12,13,54,26.70
2016,08,12,13,55,26.70
2016,08,12,13,56,26.70
2016,08,12,13,57,26.70
2016,08,12,13,58,26.70
2016,08,12,13,59,26.60
2016,08,12,14,00,26.60
2016,08,12,14,01,26.40
2016,08,12,14,02,26.30
2016,08,12,14,03,26.30
2016,08,12,14,04,26.20
2016,08,12,14,05,26.20
2016,08,12,14,06,26.20
2016,08,12,14,07,26.30
2016,08,12,14,08,26.30
2016,08,12,14,09,26.20
2016,08,12,14,10,26.10
2016,08,12,14,11,26.10
2016,08,12,14,12,26.00
2016,08,12,14,13,26.00
2016,08,12,14,14,26.00
2016,08,12,14,15,26.00
2016,08,12,14,16,26.10
2016,08,12,14,17,26.10
2016,08,12,14,18,26.00
2016,08,12,14,19,26.00
2016,08,12,14,20,25.90
2016,08,12,14,21,25.90
2016,08,12,14,22,25.80
2016,08,12,14,23,25.80
2016,08,12,14,24,25.90
2016,08,12,14,25,25.90
2016,08,12,14,26,26.00
2016,08,12,14,27,26.00
2016,08,12,14,28,26.00
2016,08,12,14,29,26.00
2016,08,12,14,30,26.10
2016,08,12,14,31,26.10
2016,08,12,14,32,26.10
2016,08,12,14,33,26.20
2016,08,12,14,34,26.30
2016,08,12,14,35,26.40
2016,08,12,14,36,26.50
2016,08,12,14,37,26.60
2016,08,12,14,38,26.60
2016,08,12,14,39,26.70
2016,08,12,14,40,26.70
2016,08,12,14,41,26.60
2016,08,12,14,42,26.50
2016,08,12,14,43,26.50
2016,08,12,14,44,26.50
2016,08,12,14,45,26.50
2016,08,12,14,46,26.50
2016,08,12,14,47,26.40
2016,08,12,14,48,26.30
2016,08,12,14,49,26.20
2016,08,12,14,50,26.10
2016,08,12,14,51,26.10
2016,08,12,14,52,26.10
2016,08,12,14,53,26.20
2016,08,12,14,54,26.30
2016,08,12,14,55,26.40
2016,08,12,14,56,26.50
2016,08,12,14,57,26.60
2016,08,12,14,58,26.60
2016,08,12,14,59,26.70
2016,08,12,15,00,26.70
2016,08,12,15,01,26.70
2016,08,12,15,02,26.70
2016,08,12,15,03,26.70
2016,08,12,15,04,26.70
2016,08,12,15,05,26.70
2016,08,12,15,06,26.70
2016,08,12,15,07,26.80
2016,08,12,15,08,26.80
2016,08,12,15,09,26.90
2016,08,12,15,10,26.90
2016,08,12,15,11,27.00
2016,08,12,15,12,27.10
2016,08,12,15,13,27.20
2016,08,12,15,14,27.10
2016,08,12,15,15,26.90
2016,08,12,15,16,26.80
2016,08,12,15,17,26.60
2016,08,12,15,18,26.50
2016,08,12,15,19,26.40
2016,08,12,15,20,26.40
2016,08,12,15,21,26.40
2016,08,12,15,22,26.40
2016,08,12,15,23,26.40
2016,08,12,15,24,26.50
2016,08,12,15,25,26.50
2016,08,12,15,26,26.60
2016,08,12,15,27,26.70
2016,08,12,15,28,26.70
2016,08,12,15,29,26.80
2016,08,12,15,30,26.90
2016,08,12,15,31,27.00
2016,08,12,15,32,27.10
2016,08,12,15,33,27.10
2016,08,12,15,34,27.10
2016,08,12,15,35,27.20
2016,08,12,15,36,27.20
2016,08,12,15,37,27.30
2016,08,12,15,38,27.30
2016,08,12,15,39,27.30
2016,08,12,15,40,27.30
2016,08,12,15,41,27.20
2016,08,12,15,42,27.20
2016,08,12,15,43,27.10
2016,08,12,15,44,27.00
2016,08,12,15,45,27.00
2016,08,12,15,46,26.90
2016,08,12,15,47,26.90
2016,08,12,15,48,27.00
2016,08,12,15,49,27.10
2016,08,12,15,50,27.10
2016,08,12,15,51,27.10
2016,08,12,15,52,27.10
2016,08,12,15,53,27.10
2016,08,12,15,54,27.00
2016,08,12,15,55,27.10
2016,08,12,15,56,27.10
2016,08,12,15,57,27.20
2016,08,12,15,58,27.20
2016,08,12,15,59,27.30
2016,08,12,16,00,27.40
2016,08,12,16,01,27.40
2016,08,12,16,02,27.40
2016,08,12,16,03,27.50
2016,08,12,16,04,27.50
2016,08,12,16,05,27.60
2016,08,12,16,06,27.60
2016,08,12,16,07,27.60
2016,08,12,16,08,27.60
2016,08,12,16,09,27.50
2016,08,12,16,10,27.50
2016,08,12,16,11,27.50
2016,08,12,16,12,27.50
2016,08,12,16,13,27.40
2016,08,12,16,14,27.40
2016,08,12,16,15,27.40
2016,08,12,16,16,27.40
2016,08,12,16,17,27.30
2016,08,12,16,18,27.30
2016,08,12,16,19,27.20
2016,08,12,16,20,27.20
2016,08,12,16,21,27.10
2016,08,12,16,22,27.10
2016,08,12,16,23,27.10
2016,08,12,16,24,27.10
2016,08,12,16,25,27.10
2016,08,12,16,26,27.10
2016,08,12,16,27,27.10
2016,08,12,16,28,27.20
2016,08,12,16,29,27.20
2016,08,12,16,30,27.20
2016,08,12,16,31,27.20
2016,08,12,16,32,27.20
2016,08,12,16,33,27.30
2016,08,12,16,34,27.30
2016,08,12,16,35,27.30
2016,08,12,16,36,27.20
2016,08,12,16,37,27.10
2016,08,12,16,38,27.00
2016,08,12,16,39,27.00
2016,08,12,16,40,26.90
2016,08,12,16,41,26.90
2016,08,12,16,42,26.80
2016,08,12,16,43,26.80
2016,08,12,16,44,26.80
2016,08,12,16,45,26.90
2016,08,12,16,46,26.90
2016,08,12,16,47,26.90
2016,08,12,16,48,26.90
2016,08,12,16,49,27.00
2016,08,12,16,50,27.00
2016,08,12,16,51,27.10
2016,08,12,16,52,27.10
2016,08,12,16,53,27.10
2016,08,12,16,54,27.10
2016,08,12,16,55,27.10
2016,08,12,16,56,27.20
2016,08,12,16,57,27.30
2016,08,12,16,58,27.40
2016,08,12,16,59,27.40
2016,08,12,17,00,27.50
2016,08,12,17,01,27.50
2016,08,12,17,02,27.50
2016,08,12,17,03,27.50
2016,08,12,17,04,27.50
2016,08,12,17,05,27.60
2016,08,12,17,06,27.60
2016,08,12,17,07,27.60
2016,08,12,17,08,27.60
2016,08,12,17,09,27.60
2016,08,12,17,10,27.60
2016,08,12,17,11,27.70
2016,08,12,17,12,27.70
2016,08,12,17,13,27.70
2016,08,12,17,14,27.60
2016,08,12,17,15,27.60
2016,08,12,17,16,27.60
2016,08,12,17,17,27.60
2016,08,12,17,18,27.60
2016,08,12,17,19,27.60
2016,08,12,17,20,27.60
2016,08,12,17,21,27.60
2016,08,12,17,22,27.60